GFSNGP_prec_precacc_216.txt.gz
Total_Precipitation_Accumulation
0.92 0.95 0.72 0.92 1.31 1.42 1.45 1.49 1.86 1.59 1.14 0.97 1.10 1.56 1.51 1.42 1.25 1.12 1.30 1.07 1.10 1.03 1.07 0.96 0.77 0.78 0.78 0.87 1.22 1.65 1.82 1.83 2.11 2.57 2.66 2.53 2.65 2.75 2.54 2.66 2.85 2.63 2.48 2.18
0.97 0.71 0.55 0.85 1.06 0.73 0.73 1.10 1.09 0.72 0.89 0.69 0.80 1.03 1.18 1.22 1.21 1.11 1.13 0.93 1.07 0.92 0.95 0.94 0.65 0.57 0.62 0.72 0.91 1.03 1.31 1.72 1.70 1.62 1.71 1.95 2.04 1.95 1.74 2.15 2.51 2.39 2.68 2.26
0.94 0.36 0.51 1.28 0.96 0.52 0.32 0.30 0.33 0.36 0.50 0.52 0.65 0.56 0.83 0.95 0.96 0.84 0.81 0.75 1.01 0.94 0.73 0.66 0.73 0.71 0.75 0.79 0.87 0.88 0.96 1.16 1.33 1.51 1.80 1.84 2.06 2.15 2.03 1.83 2.13 2.37 2.43 2.16
1.02 0.79 1.63 0.87 0.30 0.17 0.08 0.12 0.13 0.13 0.21 0.40 0.50 0.56 0.82 0.90 0.91 0.93 0.85 0.89 1.16 1.22 0.94 0.74 0.78 0.71 0.71 0.73 0.76 0.99 1.02 1.15 1.29 1.24 1.29 1.46 1.71 1.89 2.40 2.73 2.50 2.24 2.06 1.96
1.34 0.84 0.69 0.29 0.09 0.06 0.15 0.15 0.09 0.10 0.21 0.25 0.22 0.31 0.73 0.95 0.66 0.83 0.74 0.59 0.48 0.68 0.94 0.92 0.84 0.76 0.66 0.67 0.62 0.63 0.92 1.04 1.10 1.25 1.40 1.43 1.55 1.88 2.04 2.13 2.10 2.13 2.00 1.87
1.88 1.33 0.68 0.26 0.09 0.06 0.17 0.36 0.15 0.10 0.12 0.14 0.20 0.47 0.47 0.56 0.59 0.73 0.46 0.24 0.16 0.20 0.31 0.47 0.71 1.02 0.98 0.89 0.89 0.79 0.80 0.97 1.12 1.24 1.56 1.84 2.04 1.94 1.77 1.79 2.01 2.15 2.33 2.30
2.25 2.36 1.07 0.30 0.14 0.15 0.62 0.80 0.32 0.26 0.19 0.14 0.23 0.36 0.48 0.36 0.60 0.74 0.22 0.09 0.06 0.08 0.17 0.27 0.34 0.52 0.81 0.92 0.95 0.97 0.89 0.93 1.17 1.44 1.53 1.72 1.85 1.96 2.04 2.06 1.99 2.08 2.21 2.33
1.75 2.23 1.61 0.53 0.54 0.77 0.80 0.37 0.21 0.19 0.23 0.28 0.31 0.44 0.62 0.63 0.63 0.40 0.24 0.22 0.21 0.13 0.09 0.10 0.17 0.28 0.52 0.77 0.68 0.61 0.68 0.74 0.80 0.89 1.16 1.32 1.50 1.67 1.65 1.65 1.73 1.74 1.79 1.95
0.98 1.39 1.26 1.07 0.98 0.62 0.38 0.46 0.39 0.23 0.29 0.84 0.92 0.99 0.98 0.99 0.72 0.51 0.31 0.32 0.28 0.20 0.23 0.19 0.26 0.37 0.61 0.64 0.59 0.64 0.66 0.75 0.82 0.82 0.88 1.04 1.14 1.20 1.20 1.23 1.23 1.23 1.24 1.33
1.18 0.97 0.77 1.13 0.93 0.58 0.47 0.53 0.44 0.25 0.26 0.60 1.06 1.17 1.38 1.21 1.12 0.75 0.36 0.30 0.36 0.23 0.22 0.30 0.72 0.83 0.64 0.38 0.35 0.45 0.60 0.71 0.81 0.80 0.90 0.90 0.85 0.79 0.74 0.79 0.83 0.94 1.04 1.10
1.35 0.98 0.82 0.93 1.22 0.68 0.42 0.40 0.40 0.19 0.18 0.28 0.52 0.65 1.00 0.98 0.83 0.99 0.73 0.36 0.45 0.32 0.31 0.42 0.62 0.66 0.53 0.49 0.42 0.50 0.49 0.63 0.66 0.67 0.64 0.62 0.66 0.72 0.64 0.77 0.78 0.80 0.94 1.09
1.42 1.43 1.34 1.20 1.09 1.13 0.74 0.49 0.42 0.52 0.41 0.46 0.50 0.44 0.65 0.58 0.74 0.69 0.93 0.76 0.68 0.55 0.48 0.46 0.33 0.46 0.59 0.67 0.49 0.58 0.49 0.44 0.60 0.57 0.57 0.54 0.58 0.70 0.85 0.86 0.89 0.96 1.04 1.08
0.63 0.78 1.14 1.18 0.72 0.41 0.34 0.22 0.14 0.33 0.28 0.34 0.56 0.50 0.89 0.49 0.73 0.85 1.02 0.81 0.74 0.78 0.75 0.62 0.44 0.47 0.68 0.75 0.65 0.69 0.63 0.48 0.53 0.58 0.55 0.53 0.59 0.58 0.72 1.05 1.12 1.22 1.28 1.35
0.13 0.24 0.29 0.21 0.17 0.04 0.02 0.02 0.02 0.05 0.10 0.16 0.30 0.49 1.29 0.87 0.89 0.90 0.88 0.66 0.70 0.79 0.95 1.01 0.67 0.68 0.89 1.05 1.06 1.17 1.18 1.04 0.83 0.80 0.85 0.93 1.02 1.17 1.29 1.37 1.56 1.85 1.83 1.60
0.06 0.06 0.06 0.05 0.03 0.02 0.02 0.02 0.02 0.03 0.08 0.18 0.20 0.32 0.61 1.06 1.25 1.04 0.83 0.72 0.79 0.87 1.07 1.15 0.91 0.86 0.85 0.91 1.02 1.14 1.21 1.25 1.16 1.13 1.22 1.26 1.25 1.29 1.30 1.26 1.22 1.23 1.20 1.17
0.04 0.05 0.08 0.10 0.11 0.12 0.11 0.12 0.16 0.28 0.33 0.23 0.19 0.35 0.61 1.23 1.60 1.23 0.80 0.57 0.53 0.69 0.75 0.69 0.82 0.97 0.95 0.90 0.97 1.18 1.18 1.19 1.11 1.13 1.13 1.07 0.99 0.89 0.82 0.80 0.76 0.73 0.70 0.72
0.19 0.15 0.17 0.17 0.17 0.23 0.29 0.36 0.46 0.45 0.36 0.36 0.40 0.43 0.85 1.34 1.20 0.93 0.86 0.68 0.68 0.76 0.84 0.89 1.12 1.14 1.18 1.14 1.01 1.03 0.89 0.86 0.81 0.74 0.71 0.68 0.65 0.62 0.61 0.62 0.63 0.59 0.61 0.55
0.23 0.24 0.26 0.29 0.38 0.48 0.47 0.36 0.29 0.32 0.39 0.44 0.43 0.44 0.85 1.27 1.29 0.99 0.87 0.72 0.68 0.80 0.95 1.10 1.03 0.91 0.89 0.82 0.63 0.56 0.51 0.47 0.46 0.47 0.45 0.44 0.39 0.37 0.40 0.38 0.39 0.40 0.41 0.38
0.25 0.35 0.41 0.49 0.51 0.39 0.32 0.35 0.40 0.43 0.52 0.59 0.62 0.80 1.11 1.40 1.36 1.22 1.06 0.83 0.81 0.76 0.97 0.74 0.56 0.37 0.34 0.43 0.47 0.38 0.35 0.36 0.37 0.36 0.34 0.33 0.32 0.29 0.32 0.35 0.39 0.42 0.40 0.43
0.43 0.50 0.36 0.29 0.31 0.38 0.46 0.60 0.62 0.69 0.88 0.80 0.82 0.94 1.18 1.60 1.26 0.93 0.70 0.62 0.61 0.61 0.50 0.39 0.27 0.21 0.21 0.22 0.32 0.43 0.51 0.45 0.41 0.41 0.40 0.39 0.40 0.41 0.40 0.38 0.40 0.48 0.52 0.46
0.71 0.70 0.83 0.74 0.81 0.96 0.85 0.88 0.70 0.79 0.98 0.84 0.70 0.81 0.90 1.07 0.95 0.64 0.45 0.47 0.59 0.43 0.32 0.27 0.20 0.17 0.14 0.16 0.17 0.17 0.33 0.54 0.64 0.60 0.62 0.64 0.62 0.60 0.58 0.55 0.55 0.55 0.54 0.45
0.85 0.91 1.02 0.93 0.84 1.10 1.08 0.89 0.66 0.64 0.64 0.62 0.71 0.76 0.62 0.65 0.64 0.50 0.38 0.33 0.37 0.25 0.16 0.14 0.12 0.09 0.10 0.15 0.18 0.18 0.18 0.29 0.43 0.53 0.64 0.76 0.84 0.84 0.81 0.77 0.72 0.60 0.55 0.51
0.68 0.67 0.71 0.70 0.66 0.67 0.75 0.71 0.64 0.49 0.47 0.50 0.51 0.56 0.56 0.57 0.53 0.43 0.42 0.40 0.26 0.21 0.14 0.12 0.13 0.11 0.12 0.19 0.25 0.25 0.28 0.38 0.47 0.51 0.56 0.69 0.78 0.82 0.79 0.73 0.66 0.62 0.61 0.55
0.55 0.50 0.48 0.45 0.34 0.26 0.34 0.51 0.45 0.45 0.42 0.36 0.28 0.26 0.25 0.31 0.42 0.36 0.27 0.26 0.27 0.29 0.30 0.27 0.26 0.25 0.30 0.42 0.45 0.43 0.46 0.54 0.57 0.54 0.60 0.71 0.73 0.68 0.69 0.67 0.62 0.56 0.54 0.51
0.44 0.43 0.39 0.31 0.28 0.37 0.29 0.24 0.16 0.17 0.18 0.21 0.24 0.21 0.20 0.22 0.32 0.32 0.25 0.27 0.22 0.23 0.29 0.32 0.39 0.42 0.54 0.60 0.57 0.51 0.52 0.58 0.55 0.60 0.65 0.66 0.58 0.52 0.48 0.47 0.49 0.52 0.51 0.49
0.36 0.34 0.32 0.27 0.26 0.23 0.20 0.14 0.16 0.17 0.13 0.16 0.24 0.25 0.24 0.20 0.19 0.21 0.24 0.27 0.28 0.28 0.31 0.33 0.33 0.36 0.41 0.44 0.45 0.42 0.46 0.47 0.49 0.54 0.51 0.46 0.44 0.46 0.43 0.44 0.45 0.45 0.46 0.48
0.34 0.31 0.24 0.21 0.20 0.19 0.20 0.21 0.20 0.21 0.20 0.23 0.30 0.32 0.27 0.26 0.23 0.20 0.22 0.24 0.25 0.30 0.35 0.39 0.38 0.39 0.40 0.39 0.40 0.40 0.41 0.42 0.40 0.39 0.41 0.43 0.45 0.44 0.45 0.44 0.43 0.42 0.41 0.41

GFSNGP_prec_precacc_222.txt.gz
Total_Precipitation_Accumulation
0.96 0.96 0.72 0.92 1.31 1.43 1.48 1.53 1.91 1.72 1.22 1.04 1.14 1.58 1.52 1.42 1.25 1.12 1.30 1.07 1.10 1.03 1.07 0.96 0.77 0.78 0.78 0.87 1.22 1.65 1.82 1.83 2.11 2.57 2.66 2.53 2.65 2.75 2.54 2.68 2.91 2.74 2.60 2.32
0.97 0.71 0.56 0.86 1.06 0.73 0.73 1.10 1.10 0.73 0.90 0.70 0.81 1.04 1.19 1.22 1.21 1.11 1.13 0.93 1.07 0.92 0.95 0.94 0.65 0.57 0.62 0.72 0.91 1.03 1.31 1.72 1.70 1.62 1.71 1.95 2.04 1.95 1.74 2.15 2.52 2.44 2.82 2.45
0.95 0.37 0.52 1.29 0.96 0.52 0.32 0.30 0.33 0.37 0.50 0.52 0.65 0.56 0.83 0.95 0.96 0.84 0.81 0.75 1.01 0.94 0.73 0.66 0.73 0.71 0.75 0.79 0.87 0.88 0.96 1.16 1.33 1.51 1.80 1.84 2.06 2.15 2.03 1.83 2.13 2.37 2.44 2.20
1.03 0.79 1.64 0.87 0.30 0.17 0.08 0.12 0.13 0.13 0.21 0.40 0.50 0.56 0.82 0.90 0.91 0.93 0.85 0.89 1.16 1.22 0.94 0.74 0.78 0.71 0.71 0.73 0.76 0.99 1.02 1.15 1.29 1.24 1.29 1.46 1.71 1.89 2.40 2.73 2.50 2.24 2.06 1.96
1.36 0.86 0.70 0.29 0.10 0.06 0.15 0.15 0.09 0.10 0.21 0.25 0.22 0.31 0.73 0.95 0.66 0.83 0.74 0.59 0.48 0.68 0.94 0.92 0.84 0.76 0.66 0.67 0.62 0.63 0.92 1.04 1.10 1.25 1.40 1.43 1.55 1.88 2.04 2.13 2.10 2.13 2.00 1.87
1.91 1.37 0.70 0.30 0.09 0.06 0.17 0.36 0.15 0.10 0.12 0.14 0.20 0.47 0.47 0.56 0.59 0.73 0.46 0.24 0.16 0.20 0.31 0.47 0.71 1.02 0.98 0.89 0.89 0.79 0.80 0.97 1.12 1.24 1.56 1.84 2.04 1.94 1.77 1.79 2.01 2.15 2.33 2.30
2.29 2.42 1.12 0.33 0.14 0.15 0.63 0.83 0.32 0.26 0.19 0.14 0.23 0.36 0.48 0.36 0.60 0.74 0.22 0.09 0.06 0.08 0.17 0.27 0.34 0.52 0.81 0.92 0.95 0.97 0.89 0.93 1.17 1.44 1.53 1.72 1.85 1.96 2.04 2.06 1.99 2.08 2.21 2.33
1.85 2.33 1.72 0.54 0.55 0.79 0.85 0.39 0.21 0.19 0.23 0.28 0.31 0.44 0.62 0.63 0.63 0.40 0.24 0.22 0.21 0.13 0.09 0.10 0.17 0.28 0.52 0.77 0.68 0.61 0.68 0.74 0.80 0.89 1.16 1.33 1.51 1.67 1.65 1.66 1.74 1.74 1.79 1.95
1.19 1.63 1.31 1.08 0.99 0.63 0.38 0.46 0.39 0.23 0.29 0.84 0.92 0.99 0.98 0.99 0.72 0.51 0.31 0.32 0.28 0.20 0.23 0.19 0.26 0.37 0.61 0.64 0.59 0.64 0.66 0.75 0.82 0.82 0.89 1.05 1.14 1.21 1.20 1.23 1.23 1.23 1.24 1.33
1.22 1.00 0.80 1.13 0.93 0.58 0.47 0.53 0.44 0.25 0.26 0.60 1.06 1.17 1.38 1.21 1.12 0.75 0.36 0.30 0.36 0.23 0.22 0.30 0.72 0.83 0.64 0.38 0.35 0.45 0.60 0.71 0.82 0.81 0.91 0.92 0.88 0.81 0.75 0.80 0.83 0.94 1.04 1.10
1.41 1.02 0.87 0.94 1.23 0.68 0.42 0.40 0.40 0.19 0.18 0.28 0.52 0.65 1.00 0.98 0.83 0.99 0.74 0.37 0.45 0.32 0.31 0.42 0.62 0.66 0.53 0.49 0.42 0.50 0.49 0.63 0.67 0.69 0.70 0.65 0.75 0.83 0.70 0.80 0.82 0.81 0.95 1.11
1.48 1.47 1.36 1.21 1.10 1.13 0.74 0.49 0.42 0.52 0.41 0.46 0.50 0.44 0.65 0.58 0.74 0.69 0.94 0.77 0.68 0.56 0.48 0.46 0.33 0.46 0.59 0.67 0.49 0.58 0.49 0.45 0.63 0.62 0.62 0.65 0.65 0.94 1.16 1.13 1.11 1.14 1.20 1.21
0.63 0.78 1.14 1.18 0.72 0.41 0.34 0.22 0.14 0.33 0.28 0.34 0.56 0.50 0.89 0.49 0.73 0.86 1.02 0.82 0.75 0.79 0.75 0.63 0.45 0.48 0.71 0.78 0.66 0.69 0.64 0.49 0.56 0.66 0.63 0.65 0.79 0.77 0.91 1.33 1.42 1.54 1.59 1.62
0.13 0.24 0.30 0.21 0.17 0.04 0.02 0.02 0.02 0.05 0.10 0.16 0.30 0.49 1.29 0.88 0.90 0.91 0.89 0.67 0.73 0.82 0.99 1.08 0.75 0.75 0.98 1.24 1.18 1.22 1.20 1.12 0.94 0.95 1.02 1.06 1.19 1.44 1.50 1.56 1.82 2.14 2.13 1.86
0.06 0.06 0.06 0.05 0.03 0.02 0.02 0.02 0.02 0.03 0.08 0.18 0.20 0.32 0.62 1.07 1.26 1.07 0.88 0.80 0.88 0.97 1.20 1.26 0.99 0.98 0.95 1.11 1.24 1.29 1.38 1.45 1.43 1.38 1.43 1.49 1.47 1.55 1.61 1.50 1.39 1.37 1.38 1.36
0.04 0.05 0.08 0.10 0.11 0.12 0.11 0.12 0.16 0.28 0.33 0.24 0.19 0.35 0.62 1.25 1.65 1.33 0.91 0.68 0.68 0.88 0.95 0.83 0.93 1.23 1.16 1.16 1.32 1.52 1.54 1.59 1.48 1.40 1.40 1.34 1.28 1.14 1.13 1.08 0.94 0.80 0.75 0.77
0.19 0.15 0.17 0.17 0.17 0.23 0.29 0.36 0.46 0.45 0.36 0.36 0.41 0.44 0.87 1.38 1.28 0.99 0.94 0.81 0.88 1.03 1.10 1.10 1.39 1.43 1.47 1.51 1.53 1.60 1.43 1.37 1.18 1.03 0.98 0.93 0.89 0.85 0.78 0.76 0.73 0.63 0.62 0.56
0.23 0.24 0.26 0.29 0.38 0.48 0.47 0.36 0.29 0.32 0.40 0.44 0.44 0.45 0.88 1.32 1.36 1.06 0.97 0.81 0.79 0.95 1.16 1.40 1.32 1.28 1.33 1.36 1.06 0.92 0.86 0.76 0.69 0.66 0.65 0.62 0.52 0.47 0.45 0.42 0.41 0.41 0.42 0.38
0.25 0.35 0.41 0.49 0.51 0.39 0.32 0.35 0.41 0.43 0.52 0.59 0.62 0.80 1.12 1.43 1.42 1.28 1.12 0.86 0.83 0.79 1.07 0.89 0.74 0.56 0.55 0.64 0.64 0.53 0.48 0.48 0.47 0.45 0.41 0.38 0.35 0.31 0.34 0.36 0.40 0.42 0.41 0.43
0.43 0.50 0.36 0.29 0.31 0.38 0.46 0.60 0.62 0.69 0.88 0.80 0.83 0.94 1.19 1.61 1.29 0.97 0.73 0.63 0.62 0.63 0.53 0.42 0.31 0.27 0.26 0.31 0.39 0.48 0.56 0.50 0.44 0.43 0.41 0.40 0.41 0.42 0.41 0.39 0.40 0.48 0.53 0.46
0.71 0.70 0.83 0.74 0.81 0.96 0.85 0.88 0.70 0.79 0.98 0.84 0.70 0.81 0.90 1.07 0.96 0.66 0.46 0.47 0.59 0.43 0.32 0.27 0.20 0.17 0.15 0.17 0.18 0.18 0.34 0.55 0.65 0.61 0.62 0.64 0.63 0.60 0.59 0.56 0.55 0.55 0.54 0.45
0.85 0.91 1.02 0.93 0.84 1.10 1.08 0.89 0.66 0.64 0.64 0.62 0.71 0.76 0.62 0.66 0.65 0.51 0.39 0.34 0.38 0.25 0.16 0.14 0.12 0.09 0.10 0.15 0.18 0.19 0.19 0.29 0.44 0.54 0.64 0.76 0.84 0.84 0.81 0.77 0.72 0.60 0.56 0.51
0.69 0.68 0.71 0.70 0.66 0.67 0.75 0.71 0.64 0.49 0.47 0.50 0.51 0.56 0.57 0.58 0.53 0.44 0.44 0.40 0.27 0.21 0.14 0.12 0.13 0.11 0.12 0.19 0.25 0.25 0.28 0.38 0.47 0.51 0.56 0.69 0.78 0.83 0.80 0.74 0.66 0.63 0.62 0.55
0.55 0.51 0.48 0.45 0.34 0.26 0.34 0.51 0.46 0.45 0.42 0.36 0.28 0.26 0.25 0.31 0.44 0.36 0.27 0.26 0.27 0.29 0.30 0.27 0.26 0.25 0.30 0.42 0.45 0.44 0.46 0.54 0.57 0.54 0.61 0.72 0.74 0.68 0.70 0.67 0.62 0.56 0.55 0.52
0.44 0.43 0.39 0.31 0.29 0.37 0.29 0.25 0.17 0.17 0.18 0.22 0.24 0.21 0.21 0.25 0.35 0.33 0.25 0.27 0.22 0.24 0.29 0.32 0.39 0.43 0.54 0.60 0.57 0.51 0.53 0.58 0.56 0.60 0.66 0.66 0.59 0.53 0.49 0.47 0.49 0.52 0.51 0.49
0.36 0.34 0.33 0.28 0.26 0.23 0.21 0.16 0.18 0.19 0.14 0.16 0.24 0.26 0.26 0.21 0.20 0.21 0.24 0.27 0.28 0.29 0.33 0.34 0.34 0.37 0.42 0.45 0.46 0.43 0.47 0.48 0.50 0.55 0.52 0.47 0.45 0.46 0.44 0.44 0.45 0.46 0.46 0.48
0.34 0.31 0.24 0.21 0.21 0.21 0.22 0.25 0.25 0.27 0.24 0.26 0.30 0.33 0.28 0.27 0.24 0.21 0.22 0.24 0.26 0.31 0.36 0.41 0.41 0.42 0.41 0.40 0.41 0.41 0.42 0.43 0.41 0.39 0.42 0.44 0.45 0.44 0.45 0.45 0.43 0.42 0.42 0.42

GFSNGP_prec_precacc_228.txt.gz
Total_Precipitation_Accumulation
0.97 0.97 0.73 0.92 1.33 1.45 1.50 1.56 1.94 1.84 1.35 1.11 1.29 1.73 1.60 1.47 1.32 1.21 1.37 1.11 1.13 1.04 1.07 0.96 0.77 0.78 0.79 0.87 1.22 1.65 1.82 1.83 2.11 2.57 2.66 2.53 2.65 2.75 2.54 2.68 2.91 2.74 2.61 2.36
0.97 0.72 0.56 0.86 1.06 0.73 0.75 1.14 1.14 0.75 0.92 0.71 0.83 1.05 1.19 1.22 1.21 1.11 1.13 0.93 1.07 0.93 0.95 0.94 0.65 0.57 0.62 0.72 0.91 1.03 1.31 1.72 1.70 1.62 1.71 1.95 2.04 1.95 1.74 2.15 2.52 2.44 2.82 2.45
0.95 0.37 0.52 1.29 0.96 0.52 0.32 0.31 0.35 0.39 0.51 0.56 0.67 0.59 0.84 0.96 0.98 0.84 0.81 0.75 1.01 0.94 0.73 0.66 0.73 0.71 0.75 0.79 0.87 0.88 0.96 1.16 1.33 1.51 1.80 1.84 2.06 2.15 2.03 1.83 2.13 2.37 2.44 2.20
1.03 0.79 1.64 0.88 0.31 0.17 0.08 0.12 0.14 0.14 0.21 0.40 0.51 0.57 0.82 0.90 0.91 0.93 0.85 0.89 1.16 1.22 0.94 0.74 0.78 0.71 0.71 0.73 0.76 0.99 1.02 1.15 1.29 1.24 1.29 1.46 1.71 1.89 2.40 2.73 2.50 2.24 2.06 1.96
1.37 0.86 0.70 0.31 0.10 0.07 0.15 0.16 0.09 0.10 0.21 0.25 0.22 0.31 0.73 0.95 0.66 0.83 0.74 0.59 0.48 0.68 0.94 0.92 0.84 0.76 0.66 0.67 0.62 0.63 0.92 1.04 1.10 1.25 1.40 1.43 1.55 1.88 2.04 2.13 2.10 2.13 2.00 1.87
1.91 1.38 0.73 0.42 0.13 0.07 0.17 0.41 0.18 0.11 0.12 0.14 0.20 0.47 0.47 0.56 0.59 0.73 0.46 0.24 0.16 0.20 0.31 0.47 0.71 1.02 0.98 0.89 0.89 0.79 0.80 0.97 1.12 1.24 1.56 1.84 2.04 1.94 1.77 1.79 2.01 2.15 2.33 2.30
2.31 2.43 1.14 0.36 0.16 0.16 0.70 1.01 0.35 0.26 0.19 0.14 0.23 0.36 0.48 0.36 0.60 0.74 0.22 0.09 0.06 0.08 0.17 0.27 0.34 0.52 0.81 0.92 0.95 0.97 0.89 0.93 1.17 1.44 1.53 1.72 1.85 1.96 2.04 2.06 1.99 2.08 2.21 2.33
1.94 2.46 1.79 0.55 0.56 0.84 0.99 0.44 0.22 0.19 0.23 0.28 0.31 0.44 0.62 0.63 0.63 0.40 0.24 0.22 0.21 0.13 0.09 0.10 0.17 0.28 0.52 0.77 0.68 0.61 0.68 0.74 0.80 0.89 1.16 1.33 1.51 1.67 1.65 1.66 1.74 1.74 1.79 1.95
1.21 1.73 1.39 1.09 1.01 0.63 0.39 0.46 0.39 0.23 0.29 0.84 0.92 0.99 0.98 0.99 0.72 0.51 0.31 0.32 0.28 0.20 0.23 0.19 0.26 0.37 0.61 0.64 0.59 0.64 0.66 0.75 0.82 0.82 0.89 1.05 1.14 1.21 1.20 1.23 1.23 1.23 1.24 1.33
1.45 1.17 0.86 1.24 0.99 0.60 0.47 0.53 0.44 0.25 0.26 0.60 1.06 1.17 1.38 1.21 1.12 0.75 0.36 0.30 0.36 0.23 0.22 0.30 0.72 0.83 0.64 0.38 0.35 0.45 0.60 0.71 0.82 0.81 0.91 0.92 0.88 0.81 0.75 0.80 0.83 0.94 1.04 1.10
1.45 1.12 0.97 1.00 1.25 0.69 0.42 0.40 0.40 0.19 0.18 0.28 0.52 0.65 1.00 0.98 0.83 0.99 0.74 0.37 0.45 0.32 0.31 0.42 0.62 0.66 0.53 0.49 0.42 0.50 0.49 0.63 0.67 0.69 0.70 0.65 0.75 0.83 0.70 0.80 0.83 0.81 0.95 1.11
1.48 1.47 1.37 1.22 1.10 1.13 0.74 0.49 0.42 0.52 0.41 0.46 0.50 0.44 0.65 0.58 0.74 0.69 0.94 0.77 0.68 0.56 0.48 0.46 0.33 0.46 0.59 0.67 0.49 0.58 0.49 0.45 0.63 0.62 0.62 0.65 0.65 0.94 1.16 1.13 1.12 1.14 1.20 1.22
0.63 0.78 1.14 1.18 0.72 0.41 0.34 0.22 0.14 0.33 0.28 0.34 0.56 0.50 0.89 0.49 0.73 0.86 1.03 0.82 0.75 0.79 0.76 0.63 0.45 0.48 0.71 0.78 0.66 0.70 0.64 0.50 0.56 0.67 0.63 0.65 0.79 0.77 0.92 1.34 1.43 1.54 1.60 1.65
0.13 0.24 0.30 0.21 0.17 0.04 0.02 0.02 0.02 0.05 0.10 0.16 0.30 0.49 1.29 0.88 0.90 0.91 0.89 0.68 0.74 0.83 1.00 1.08 0.75 0.75 0.98 1.24 1.20 1.26 1.24 1.16 0.96 0.97 1.03 1.07 1.19 1.45 1.51 1.56 1.82 2.15 2.15 1.91
0.07 0.07 0.06 0.05 0.03 0.02 0.02 0.02 0.02 0.03 0.08 0.18 0.20 0.32 0.62 1.07 1.27 1.07 0.90 0.81 0.89 0.97 1.21 1.27 1.00 0.99 0.98 1.16 1.35 1.43 1.53 1.59 1.52 1.44 1.47 1.52 1.48 1.56 1.63 1.53 1.44 1.43 1.44 1.45
0.11 0.08 0.08 0.10 0.11 0.12 0.11 0.12 0.16 0.28 0.33 0.24 0.19 0.35 0.62 1.25 1.65 1.35 0.93 0.71 0.74 0.93 0.97 0.86 0.96 1.31 1.29 1.30 1.47 1.64 1.63 1.73 1.63 1.51 1.50 1.42 1.34 1.19 1.19 1.17 1.07 0.91 0.84 0.85
0.19 0.16 0.17 0.17 0.17 0.23 0.29 0.36 0.46 0.45 0.36 0.36 0.41 0.44 0.87 1.38 1.28 0.99 0.95 0.83 0.93 1.09 1.17 1.18 1.48 1.54 1.62 1.71 1.71 1.71 1.56 1.47 1.29 1.16 1.14 1.06 1.01 0.98 0.96 1.00 0.96 0.81 0.79 0.70
0.23 0.24 0.26 0.29 0.38 0.48 0.47 0.36 0.29 0.32 0.40 0.44 0.44 0.45 0.88 1.32 1.36 1.06 0.97 0.82 0.79 0.97 1.22 1.45 1.40 1.38 1.46 1.53 1.19 1.05 1.02 0.89 0.82 0.82 0.84 0.89 0.80 0.75 0.74 0.76 0.75 0.67 0.69 0.64
0.25 0.35 0.41 0.49 0.51 0.39 0.32 0.35 0.41 0.43 0.52 0.59 0.62 0.80 1.12 1.43 1.42 1.28 1.12 0.87 0.83 0.80 1.08 0.94 0.82 0.64 0.67 0.81 0.80 0.69 0.65 0.64 0.63 0.64 0.65 0.67 0.64 0.61 0.63 0.76 0.81 0.78 0.69 0.69
0.43 0.50 0.36 0.29 0.31 0.38 0.46 0.60 0.62 0.69 0.88 0.80 0.83 0.94 1.19 1.61 1.29 0.97 0.73 0.64 0.63 0.64 0.53 0.43 0.33 0.36 0.39 0.47 0.55 0.62 0.71 0.68 0.66 0.67 0.65 0.63 0.62 0.65 0.70 0.76 0.76 0.85 0.83 0.67
0.71 0.70 0.83 0.74 0.81 0.96 0.85 0.88 0.70 0.79 0.98 0.84 0.70 0.82 0.91 1.07 0.96 0.66 0.46 0.47 0.59 0.43 0.32 0.27 0.20 0.19 0.18 0.28 0.30 0.30 0.48 0.71 0.80 0.78 0.81 0.84 0.81 0.79 0.81 0.82 0.81 0.78 0.72 0.58
0.85 0.91 1.02 0.93 0.84 1.10 1.08 0.89 0.66 0.64 0.64 0.62 0.71 0.77 0.63 0.66 0.65 0.52 0.40 0.35 0.38 0.25 0.16 0.14 0.12 0.11 0.12 0.16 0.19 0.20 0.21 0.34 0.50 0.60 0.70 0.82 0.92 0.94 0.93 0.89 0.83 0.70 0.62 0.54
0.69 0.68 0.72 0.70 0.66 0.68 0.75 0.71 0.65 0.49 0.47 0.50 0.51 0.57 0.57 0.58 0.54 0.45 0.46 0.41 0.27 0.21 0.14 0.12 0.13 0.11 0.14 0.20 0.25 0.26 0.29 0.39 0.48 0.52 0.57 0.70 0.79 0.84 0.81 0.76 0.68 0.63 0.62 0.56
0.55 0.51 0.49 0.45 0.35 0.27 0.35 0.51 0.46 0.45 0.42 0.36 0.28 0.27 0.26 0.33 0.44 0.39 0.30 0.26 0.27 0.29 0.30 0.27 0.26 0.25 0.31 0.43 0.46 0.44 0.46 0.54 0.58 0.55 0.62 0.73 0.74 0.69 0.71 0.68 0.63 0.57 0.55 0.52
0.44 0.43 0.39 0.31 0.29 0.38 0.30 0.25 0.17 0.18 0.21 0.28 0.34 0.36 0.32 0.27 0.40 0.37 0.26 0.27 0.22 0.24 0.30 0.32 0.39 0.43 0.55 0.61 0.58 0.52 0.53 0.59 0.56 0.60 0.66 0.67 0.59 0.53 0.49 0.48 0.49 0.53 0.51 0.49
0.36 0.34 0.33 0.28 0.26 0.23 0.21 0.16 0.19 0.21 0.18 0.27 0.37 0.32 0.27 0.21 0.20 0.21 0.25 0.28 0.28 0.29 0.33 0.34 0.35 0.39 0.43 0.46 0.47 0.43 0.47 0.48 0.50 0.55 0.52 0.47 0.45 0.46 0.44 0.44 0.46 0.46 0.46 0.48
0.34 0.31 0.24 0.21 0.21 0.21 0.22 0.25 0.27 0.31 0.34 0.34 0.32 0.33 0.28 0.27 0.24 0.21 0.23 0.25 0.27 0.31 0.37 0.41 0.42 0.45 0.44 0.42 0.42 0.41 0.42 0.43 0.41 0.39 0.42 0.44 0.46 0.45 0.45 0.45 0.43 0.42 0.42 0.42

GFSNGP_prec_precacc_231.txt.gz
Total_Precipitation_Accumulation
0.97 0.97 0.73 0.93 1.33 1.45 1.50 1.57 1.99 1.94 1.44 1.31 1.63 2.00 1.76 1.59 1.48 1.38 1.49 1.22 1.31 1.21 1.15 1.03 0.81 0.80 0.80 0.88 1.23 1.66 1.83 1.83 2.11 2.57 2.66 2.53 2.65 2.75 2.54 2.68 2.91 2.74 2.61 2.36
0.97 0.72 0.56 0.86 1.06 0.73 0.75 1.15 1.15 0.77 0.97 0.80 0.95 1.16 1.28 1.30 1.27 1.14 1.15 0.93 1.07 0.94 0.96 0.94 0.66 0.58 0.64 0.74 0.92 1.03 1.32 1.73 1.70 1.62 1.71 1.95 2.04 1.95 1.74 2.15 2.52 2.44 2.82 2.45
0.95 0.37 0.52 1.33 0.97 0.52 0.33 0.31 0.35 0.40 0.57 0.63 0.73 0.64 0.95 1.03 0.99 0.84 0.81 0.75 1.01 0.94 0.73 0.67 0.74 0.72 0.75 0.79 0.88 0.89 0.96 1.16 1.33 1.51 1.80 1.84 2.06 2.15 2.03 1.83 2.13 2.37 2.44 2.20
1.03 0.79 1.64 1.06 0.32 0.17 0.08 0.12 0.15 0.14 0.22 0.40 0.51 0.57 0.83 0.91 0.91 0.93 0.85 0.89 1.16 1.22 0.94 0.74 0.78 0.71 0.71 0.73 0.76 0.99 1.03 1.15 1.29 1.24 1.29 1.46 1.71 1.89 2.40 2.73 2.50 2.24 2.06 1.96
1.37 0.86 0.71 0.39 0.15 0.11 0.19 0.18 0.12 0.11 0.21 0.25 0.22 0.31 0.73 0.95 0.66 0.83 0.74 0.59 0.48 0.68 0.94 0.92 0.84 0.76 0.66 0.67 0.63 0.63 0.92 1.04 1.10 1.25 1.40 1.43 1.55 1.88 2.04 2.13 2.10 2.13 2.00 1.87
1.91 1.38 0.78 0.51 0.14 0.07 0.18 0.46 0.19 0.12 0.13 0.14 0.20 0.47 0.47 0.56 0.59 0.73 0.46 0.24 0.16 0.20 0.31 0.47 0.71 1.02 0.98 0.89 0.89 0.79 0.80 0.97 1.12 1.24 1.56 1.84 2.04 1.94 1.77 1.79 2.01 2.15 2.33 2.30
2.31 2.43 1.14 0.36 0.16 0.16 0.78 1.06 0.36 0.28 0.20 0.14 0.23 0.36 0.48 0.36 0.60 0.74 0.22 0.09 0.06 0.08 0.17 0.27 0.34 0.52 0.81 0.92 0.95 0.97 0.89 0.93 1.17 1.44 1.53 1.72 1.85 1.96 2.04 2.06 1.99 2.08 2.21 2.33
1.94 2.47 1.85 0.56 0.56 0.88 1.07 0.45 0.22 0.19 0.23 0.28 0.31 0.44 0.62 0.63 0.63 0.40 0.24 0.22 0.21 0.13 0.09 0.10 0.17 0.28 0.52 0.77 0.68 0.61 0.68 0.74 0.80 0.89 1.16 1.33 1.51 1.67 1.65 1.66 1.74 1.75 1.79 1.95
1.28 1.78 1.42 1.10 1.02 0.63 0.39 0.46 0.39 0.23 0.29 0.84 0.92 0.99 0.98 0.99 0.72 0.51 0.31 0.32 0.28 0.20 0.23 0.19 0.26 0.37 0.61 0.64 0.59 0.64 0.66 0.75 0.82 0.82 0.89 1.05 1.14 1.21 1.20 1.23 1.23 1.23 1.24 1.33
1.49 1.18 0.86 1.25 0.99 0.60 0.47 0.53 0.44 0.25 0.26 0.60 1.06 1.17 1.38 1.21 1.12 0.75 0.36 0.30 0.36 0.23 0.22 0.30 0.72 0.83 0.64 0.38 0.35 0.45 0.60 0.71 0.82 0.81 0.91 0.92 0.88 0.81 0.75 0.80 0.83 0.94 1.04 1.10
1.45 1.12 0.97 1.00 1.25 0.69 0.42 0.40 0.40 0.19 0.18 0.28 0.52 0.65 1.00 0.98 0.83 0.99 0.74 0.37 0.45 0.32 0.31 0.42 0.62 0.66 0.53 0.49 0.42 0.50 0.49 0.63 0.67 0.69 0.70 0.65 0.75 0.83 0.70 0.80 0.83 0.81 0.95 1.11
1.48 1.47 1.37 1.22 1.10 1.13 0.74 0.49 0.42 0.52 0.41 0.46 0.50 0.44 0.65 0.58 0.74 0.69 0.94 0.77 0.68 0.56 0.48 0.46 0.33 0.46 0.59 0.67 0.49 0.58 0.49 0.45 0.64 0.62 0.62 0.65 0.65 0.94 1.16 1.13 1.12 1.14 1.20 1.22
0.63 0.78 1.14 1.18 0.72 0.41 0.34 0.22 0.14 0.33 0.28 0.34 0.56 0.50 0.89 0.49 0.73 0.86 1.03 0.82 0.75 0.79 0.76 0.63 0.45 0.48 0.71 0.78 0.66 0.70 0.65 0.50 0.57 0.67 0.63 0.66 0.79 0.78 0.92 1.34 1.44 1.55 1.61 1.66
0.13 0.24 0.30 0.21 0.17 0.04 0.02 0.02 0.02 0.05 0.10 0.16 0.30 0.49 1.29 0.88 0.90 0.91 0.89 0.68 0.74 0.83 1.00 1.08 0.75 0.75 0.98 1.24 1.20 1.26 1.24 1.19 0.97 0.97 1.04 1.08 1.20 1.46 1.52 1.57 1.83 2.15 2.16 1.92
0.07 0.07 0.06 0.05 0.03 0.02 0.02 0.02 0.02 0.03 0.08 0.18 0.20 0.32 0.62 1.07 1.27 1.07 0.90 0.81 0.89 0.97 1.21 1.27 1.00 0.99 0.98 1.16 1.36 1.44 1.55 1.61 1.54 1.46 1.49 1.54 1.50 1.58 1.65 1.54 1.45 1.44 1.44 1.46
0.11 0.08 0.08 0.10 0.11 0.12 0.11 0.12 0.16 0.28 0.33 0.24 0.19 0.35 0.62 1.25 1.65 1.35 0.93 0.71 0.74 0.93 0.97 0.86 0.96 1.31 1.29 1.31 1.50 1.66 1.66 1.79 1.68 1.54 1.52 1.43 1.37 1.23 1.24 1.19 1.08 0.92 0.84 0.85
0.19 0.16 0.17 0.17 0.17 0.23 0.29 0.36 0.46 0.45 0.36 0.36 0.41 0.44 0.87 1.38 1.28 0.99 0.95 0.83 0.93 1.09 1.17 1.18 1.48 1.54 1.63 1.72 1.74 1.74 1.61 1.53 1.34 1.18 1.15 1.09 1.06 1.03 1.01 1.04 0.99 0.83 0.80 0.71
0.23 0.24 0.26 0.29 0.38 0.48 0.47 0.36 0.29 0.32 0.40 0.44 0.44 0.45 0.88 1.32 1.36 1.06 0.97 0.82 0.79 0.97 1.22 1.45 1.40 1.38 1.46 1.54 1.21 1.08 1.07 0.95 0.86 0.85 0.87 0.92 0.86 0.83 0.81 0.82 0.81 0.71 0.72 0.66
0.25 0.35 0.41 0.49 0.51 0.39 0.32 0.35 0.41 0.43 0.52 0.59 0.62 0.80 1.12 1.43 1.42 1.28 1.12 0.87 0.83 0.80 1.08 0.94 0.82 0.64 0.67 0.82 0.82 0.71 0.70 0.69 0.66 0.68 0.69 0.69 0.68 0.67 0.71 0.83 0.87 0.82 0.73 0.73
0.43 0.50 0.36 0.29 0.31 0.38 0.46 0.60 0.62 0.69 0.88 0.80 0.83 0.94 1.19 1.61 1.29 0.97 0.73 0.64 0.63 0.64 0.53 0.43 0.33 0.36 0.39 0.47 0.56 0.64 0.75 0.73 0.71 0.72 0.70 0.67 0.65 0.69 0.74 0.81 0.83 0.93 0.91 0.77
0.71 0.70 0.83 0.74 0.81 0.96 0.85 0.88 0.70 0.79 0.98 0.84 0.71 0.82 0.91 1.08 0.96 0.66 0.46 0.48 0.59 0.43 0.32 0.27 0.20 0.19 0.19 0.29 0.31 0.31 0.51 0.78 0.88 0.85 0.87 0.91 0.87 0.85 0.87 0.89 0.90 0.91 0.88 0.77
0.85 0.91 1.02 0.93 0.84 1.10 1.08 0.89 0.66 0.64 0.64 0.62 0.71 0.77 0.63 0.66 0.65 0.52 0.40 0.35 0.38 0.25 0.16 0.14 0.12 0.11 0.12 0.16 0.19 0.21 0.22 0.36 0.54 0.67 0.78 0.91 1.02 1.04 1.05 1.02 0.99 0.88 0.83 0.77
0.69 0.68 0.72 0.70 0.66 0.68 0.75 0.71 0.65 0.49 0.47 0.50 0.51 0.57 0.57 0.58 0.55 0.47 0.46 0.41 0.27 0.21 0.14 0.12 0.13 0.12 0.14 0.21 0.26 0.27 0.30 0.40 0.49 0.55 0.64 0.78 0.87 0.93 0.91 0.87 0.80 0.77 0.78 0.70
0.55 0.51 0.49 0.45 0.35 0.27 0.35 0.51 0.46 0.45 0.42 0.37 0.29 0.28 0.29 0.40 0.50 0.40 0.30 0.27 0.27 0.29 0.30 0.27 0.26 0.26 0.31 0.44 0.46 0.45 0.47 0.55 0.59 0.56 0.63 0.75 0.77 0.71 0.73 0.70 0.65 0.59 0.58 0.56
0.44 0.43 0.39 0.31 0.29 0.38 0.30 0.25 0.17 0.18 0.21 0.30 0.36 0.39 0.37 0.30 0.40 0.37 0.26 0.27 0.23 0.24 0.30 0.32 0.40 0.44 0.55 0.62 0.59 0.53 0.54 0.60 0.57 0.61 0.67 0.67 0.60 0.55 0.50 0.49 0.50 0.54 0.53 0.50
0.36 0.34 0.33 0.28 0.26 0.23 0.21 0.16 0.19 0.21 0.18 0.27 0.37 0.32 0.27 0.21 0.20 0.21 0.25 0.28 0.29 0.30 0.34 0.34 0.36 0.39 0.44 0.47 0.47 0.43 0.48 0.49 0.51 0.56 0.53 0.47 0.45 0.47 0.45 0.45 0.47 0.47 0.47 0.49
0.34 0.31 0.24 0.21 0.21 0.21 0.22 0.25 0.27 0.32 0.34 0.34 0.32 0.33 0.28 0.27 0.24 0.21 0.23 0.25 0.27 0.33 0.40 0.43 0.42 0.45 0.45 0.44 0.43 0.41 0.42 0.43 0.41 0.40 0.43 0.45 0.46 0.45 0.46 0.45 0.44 0.43 0.42 0.42

GFSNGP_prec_precacc_237.txt.gz
Total_Precipitation_Accumulation
0.97 0.98 0.78 1.01 1.35 1.50 1.67 1.80 2.34 2.41 1.88 1.82 2.08 2.49 2.26 2.00 1.77 1.57 1.62 1.35 1.57 1.60 1.50 1.34 1.07 1.00 0.94 0.97 1.30 1.70 1.85 1.86 2.13 2.59 2.68 2.55 2.67 2.77 2.58 2.77 3.06 2.95 2.77 2.54
0.97 0.72 0.56 0.86 1.07 0.76 0.86 1.34 1.47 1.00 1.56 1.49 1.50 1.56 1.63 1.55 1.36 1.18 1.17 0.94 1.09 0.99 1.10 1.13 0.90 0.83 0.84 0.86 0.99 1.10 1.38 1.78 1.74 1.66 1.73 1.96 2.05 1.96 1.77 2.16 2.57 2.55 2.99 2.53
0.95 0.37 0.52 1.38 1.15 0.68 0.51 0.54 0.61 0.81 1.41 1.11 1.08 0.94 1.16 1.09 1.00 0.84 0.82 0.76 1.01 0.94 0.74 0.70 0.83 0.85 0.92 0.96 0.99 0.96 1.03 1.22 1.37 1.55 1.83 1.85 2.09 2.16 2.05 1.89 2.18 2.38 2.46 2.22
1.03 0.79 1.66 1.23 0.41 0.31 0.28 0.30 0.40 0.41 0.47 0.55 0.59 0.60 0.84 0.91 0.92 0.94 0.85 0.89 1.16 1.22 0.94 0.74 0.78 0.73 0.75 0.80 0.86 1.08 1.10 1.20 1.33 1.27 1.31 1.48 1.72 1.90 2.40 2.73 2.53 2.29 2.08 1.96
1.37 0.86 0.72 0.45 0.21 0.23 0.34 0.32 0.24 0.19 0.28 0.29 0.23 0.32 0.73 0.95 0.66 0.83 0.74 0.59 0.48 0.68 0.94 0.92 0.84 0.76 0.67 0.69 0.66 0.67 0.97 1.09 1.14 1.27 1.42 1.44 1.56 1.88 2.04 2.14 2.10 2.13 2.01 1.89
1.91 1.38 0.80 0.51 0.14 0.10 0.26 0.53 0.25 0.12 0.13 0.14 0.20 0.47 0.47 0.56 0.59 0.73 0.46 0.24 0.16 0.20 0.31 0.47 0.71 1.02 0.98 0.89 0.90 0.80 0.82 1.00 1.14 1.26 1.57 1.85 2.05 1.95 1.77 1.80 2.02 2.15 2.33 2.30
2.31 2.44 1.15 0.36 0.16 0.17 0.88 1.12 0.37 0.28 0.20 0.14 0.23 0.36 0.48 0.36 0.60 0.74 0.22 0.09 0.06 0.08 0.17 0.27 0.34 0.52 0.81 0.92 0.95 0.97 0.89 0.93 1.18 1.44 1.54 1.73 1.86 1.96 2.05 2.06 1.99 2.08 2.21 2.34
1.94 2.48 1.85 0.56 0.57 0.89 1.09 0.45 0.22 0.19 0.23 0.28 0.31 0.44 0.62 0.63 0.63 0.40 0.24 0.22 0.21 0.13 0.09 0.10 0.17 0.28 0.52 0.77 0.68 0.61 0.68 0.74 0.80 0.89 1.16 1.33 1.51 1.67 1.65 1.66 1.74 1.75 1.79 1.95
1.29 1.78 1.42 1.10 1.03 0.63 0.39 0.46 0.39 0.24 0.29 0.84 0.92 0.99 0.98 0.99 0.72 0.51 0.31 0.32 0.28 0.20 0.23 0.19 0.26 0.37 0.61 0.64 0.59 0.64 0.66 0.75 0.82 0.82 0.89 1.05 1.14 1.21 1.20 1.23 1.23 1.23 1.24 1.33
1.49 1.18 0.86 1.25 0.99 0.60 0.47 0.53 0.44 0.25 0.26 0.60 1.06 1.17 1.38 1.21 1.12 0.75 0.36 0.30 0.36 0.23 0.22 0.30 0.72 0.83 0.64 0.38 0.35 0.45 0.60 0.71 0.82 0.81 0.91 0.92 0.88 0.81 0.75 0.80 0.83 0.94 1.04 1.10
1.45 1.12 0.97 1.00 1.25 0.69 0.42 0.40 0.40 0.19 0.18 0.28 0.52 0.65 1.00 0.98 0.83 0.99 0.74 0.37 0.45 0.32 0.31 0.42 0.62 0.66 0.53 0.49 0.42 0.50 0.49 0.63 0.67 0.69 0.70 0.65 0.75 0.83 0.70 0.80 0.83 0.81 0.95 1.11
1.48 1.47 1.37 1.22 1.10 1.13 0.74 0.49 0.42 0.52 0.41 0.46 0.50 0.44 0.65 0.58 0.74 0.69 0.94 0.77 0.68 0.56 0.48 0.46 0.33 0.46 0.59 0.67 0.49 0.58 0.49 0.45 0.64 0.62 0.62 0.65 0.65 0.94 1.17 1.14 1.12 1.15 1.20 1.22
0.63 0.78 1.14 1.18 0.72 0.41 0.34 0.22 0.14 0.33 0.28 0.34 0.56 0.50 0.89 0.49 0.73 0.86 1.03 0.82 0.75 0.79 0.76 0.63 0.45 0.48 0.71 0.78 0.66 0.70 0.65 0.50 0.57 0.68 0.64 0.66 0.79 0.78 0.92 1.35 1.44 1.55 1.61 1.66
0.13 0.24 0.30 0.21 0.17 0.04 0.02 0.02 0.02 0.05 0.10 0.16 0.30 0.49 1.29 0.88 0.90 0.91 0.89 0.68 0.74 0.83 1.00 1.08 0.75 0.75 0.98 1.24 1.20 1.26 1.24 1.22 0.99 0.98 1.05 1.09 1.21 1.47 1.53 1.58 1.83 2.15 2.16 1.92
0.07 0.07 0.06 0.05 0.03 0.02 0.02 0.02 0.02 0.03 0.08 0.18 0.20 0.32 0.62 1.07 1.27 1.07 0.90 0.81 0.89 0.97 1.21 1.27 1.00 0.99 0.98 1.16 1.36 1.44 1.55 1.62 1.55 1.47 1.49 1.55 1.52 1.60 1.67 1.56 1.47 1.45 1.44 1.46
0.11 0.08 0.08 0.10 0.11 0.12 0.11 0.12 0.16 0.28 0.33 0.24 0.19 0.35 0.62 1.25 1.65 1.35 0.93 0.71 0.74 0.93 0.97 0.86 0.96 1.31 1.29 1.31 1.50 1.66 1.66 1.82 1.70 1.55 1.53 1.45 1.38 1.26 1.26 1.22 1.10 0.94 0.85 0.86
0.19 0.16 0.17 0.17 0.17 0.23 0.29 0.36 0.46 0.45 0.36 0.36 0.41 0.44 0.87 1.38 1.28 0.99 0.95 0.83 0.93 1.09 1.17 1.18 1.48 1.54 1.63 1.72 1.74 1.74 1.61 1.54 1.38 1.19 1.16 1.10 1.07 1.06 1.04 1.08 1.03 0.86 0.82 0.72
0.23 0.24 0.26 0.29 0.38 0.48 0.47 0.36 0.29 0.32 0.40 0.44 0.44 0.45 0.88 1.32 1.36 1.06 0.98 0.82 0.79 0.97 1.22 1.45 1.40 1.38 1.46 1.54 1.21 1.08 1.08 0.95 0.88 0.86 0.88 0.93 0.86 0.84 0.84 0.86 0.85 0.76 0.75 0.71
0.25 0.35 0.41 0.49 0.51 0.39 0.32 0.35 0.41 0.43 0.52 0.59 0.62 0.80 1.12 1.44 1.43 1.29 1.12 0.87 0.83 0.80 1.08 0.94 0.82 0.64 0.67 0.82 0.83 0.71 0.70 0.70 0.68 0.69 0.70 0.70 0.68 0.68 0.73 0.87 0.92 0.87 0.78 0.80
0.43 0.50 0.36 0.29 0.31 0.38 0.46 0.60 0.62 0.69 0.88 0.80 0.83 0.95 1.20 1.61 1.30 0.97 0.73 0.64 0.63 0.65 0.54 0.43 0.33 0.36 0.39 0.48 0.57 0.64 0.76 0.75 0.73 0.75 0.72 0.69 0.68 0.70 0.76 0.83 0.85 0.98 0.97 0.82
0.71 0.70 0.83 0.74 0.81 0.96 0.85 0.88 0.70 0.79 0.98 0.84 0.71 0.82 0.91 1.08 0.96 0.67 0.47 0.48 0.59 0.44 0.32 0.27 0.20 0.19 0.19 0.29 0.31 0.31 0.51 0.80 0.91 0.90 0.92 0.96 0.92 0.88 0.90 0.92 0.93 0.94 0.92 0.82
0.85 0.91 1.02 0.93 0.84 1.10 1.08 0.89 0.66 0.64 0.64 0.62 0.71 0.77 0.64 0.66 0.65 0.52 0.42 0.39 0.39 0.25 0.16 0.14 0.12 0.11 0.13 0.17 0.20 0.21 0.23 0.37 0.58 0.72 0.83 0.97 1.09 1.11 1.12 1.09 1.06 0.95 0.89 0.84
0.69 0.68 0.72 0.70 0.66 0.68 0.75 0.71 0.65 0.49 0.47 0.51 0.51 0.57 0.58 0.59 0.57 0.50 0.47 0.41 0.27 0.22 0.15 0.13 0.14 0.12 0.15 0.21 0.26 0.27 0.30 0.41 0.50 0.61 0.73 0.87 0.97 1.03 1.02 0.99 0.94 0.92 0.92 0.85
0.55 0.51 0.49 0.45 0.35 0.27 0.35 0.51 0.46 0.45 0.42 0.38 0.29 0.29 0.30 0.40 0.51 0.41 0.31 0.27 0.28 0.30 0.31 0.28 0.27 0.26 0.33 0.45 0.47 0.45 0.48 0.56 0.60 0.57 0.68 0.85 0.91 0.85 0.85 0.83 0.80 0.78 0.80 0.80
0.44 0.43 0.39 0.31 0.29 0.38 0.30 0.25 0.17 0.18 0.21 0.30 0.36 0.39 0.37 0.30 0.40 0.37 0.26 0.27 0.23 0.25 0.31 0.34 0.41 0.46 0.59 0.64 0.59 0.54 0.55 0.62 0.59 0.62 0.67 0.69 0.64 0.65 0.64 0.62 0.64 0.67 0.64 0.61
0.36 0.34 0.33 0.28 0.26 0.23 0.21 0.16 0.19 0.21 0.18 0.27 0.37 0.32 0.27 0.21 0.20 0.21 0.25 0.28 0.29 0.31 0.37 0.37 0.39 0.44 0.48 0.50 0.49 0.45 0.49 0.51 0.53 0.56 0.54 0.48 0.46 0.48 0.48 0.54 0.56 0.53 0.51 0.52
0.34 0.31 0.24 0.21 0.21 0.21 0.22 0.25 0.27 0.32 0.34 0.34 0.32 0.33 0.28 0.27 0.24 0.21 0.24 0.25 0.28 0.35 0.43 0.46 0.47 0.49 0.49 0.47 0.45 0.44 0.44 0.45 0.44 0.41 0.43 0.45 0.47 0.46 0.47 0.47 0.46 0.45 0.45 0.45